カタログに戻る

STARLINK-3350

運用中通信VLEO
NORAD 51105·PAYLOAD·🇺🇸 United States

打ち上げ Jan 19, 2022 から Cape Canaveral Space Force Station

Loading…

次のパス (今後24時間)

TLE

最新Source: CelesTrak SupGP

元期: Sep 15, 2026, 01:12 UTC

1 51105C 22005B   26258.05048611  .00014098  00000+0  40342-3 0  2584
2 51105  53.1577 151.0372 0001283  83.8798 233.1212 15.35387016    12

AllMySatでSTARLINK-3350をリアルタイム追跡

Download on the App Store